| time (UTC) | temp F | wind direction | speed MPH | gust MPH | rain 1hr in | rain 24hr in | rain mn in | humidity % | barometer mb |
| 20260509185704 | 54 | 337 | 0.0 | 0.0 | 0.02 | 0.17 | 0.17 | 99 | 1011.1 |
| 20260509185438 | 54 | 337 | 0.0 | 0.0 | 0.00 | 0.17 | 0.17 | 99 | 1027.8 |
| 20260509185203 | 54 | 343 | 0.0 | 0.0 | 0.02 | 0.17 | 0.17 | 99 | 1011.0 |
| 20260509184934 | 54 | 347 | 0.0 | 0.0 | 0.07 | 0.17 | 0.17 | 99 | 1027.6 |
| 20260509184704 | 54 | 344 | 0.0 | 1.0 | 0.02 | 0.17 | 0.17 | 99 | 1011.2 |
| 20260509184432 | 54 | 329 | 0.0 | 2.0 | 0.07 | 0.17 | 0.17 | 99 | 1028.0 |
| 20260509184203 | 54 | 332 | 0.0 | 0.0 | 0.02 | 0.17 | 0.17 | 99 | 1011.3 |
| 20260509183928 | 54 | 343 | 0.0 | 0.0 | 0.07 | 0.16 | 0.16 | 99 | 1028.1 |
| 20260509183422 | 54 | 332 | 0.0 | 0.0 | 0.07 | 0.16 | 0.16 | 99 | 1028.0 |
| 20260509183204 | 54 | 333 | 0.0 | 0.0 | 0.01 | 0.15 | 0.15 | 99 | 1011.3 |
| 20260509182919 | 54 | 321 | 0.0 | 0.0 | 0.00 | 0.15 | 0.15 | 99 | 1028.0 |
| 20260509182416 | 55 | 321 | 0.0 | 0.0 | 0.00 | 0.15 | 0.15 | 99 | 1028.1 |
| 20260509182205 | 55 | 294 | 0.0 | 0.0 | 0.01 | 0.15 | 0.15 | 99 | 1011.4 |
| 20260509181914 | 55 | 322 | 0.0 | 0.0 | 0.00 | 0.15 | 0.15 | 99 | 1027.9 |
| 20260509181704 | 55 | 305 | 0.0 | 0.0 | 0.01 | 0.15 | 0.15 | 99 | 1011.5 |
| 20260509181411 | 55 | 305 | 0.0 | 0.0 | 0.00 | 0.15 | 0.15 | 99 | 1028.3 |
| 20260509181203 | 55 | 318 | 0.0 | 0.0 | 0.02 | 0.15 | 0.15 | 99 | 1011.4 |
| 20260509180908 | 55 | 311 | 0.0 | 0.0 | 0.00 | 0.15 | 0.15 | 99 | 1028.0 |
| 20260509180704 | 55 | 295 | 0.0 | 0.0 | 0.02 | 0.15 | 0.15 | 99 | 1011.5 |
| 20260509180403 | 55 | 312 | 0.0 | 0.0 | 0.00 | 0.15 | 0.15 | 99 | 1028.0 |
| 20260509175901 | 56 | 317 | 0.0 | 0.0 | 0.00 | 0.15 | 0.15 | 99 | 1028.1 |
| 20260509175703 | 56 | 317 | 0.0 | 0.0 | 0.03 | 0.15 | 0.15 | 99 | 1011.4 |
| 20260509175357 | 55 | 317 | 0.0 | 0.0 | 0.00 | 0.15 | 0.15 | 99 | 1028.4 |
| 20260509175204 | 55 | 316 | 0.0 | 0.0 | 0.04 | 0.15 | 0.15 | 99 | 1011.4 |
| 20260509174853 | 56 | 317 | 0.0 | 0.0 | 0.00 | 0.15 | 0.15 | 99 | 1028.3 |
| 20260509174705 | 56 | 317 | 0.0 | 0.0 | 0.04 | 0.15 | 0.15 | 99 | 1011.7 |
| 20260509174344 | 56 | 316 | 0.0 | 0.0 | 0.00 | 0.15 | 0.15 | 99 | 1028.3 |
| 20260509173840 | 56 | 323 | 0.0 | 0.0 | 0.05 | 0.15 | 0.15 | 99 | 1028.2 |
| 20260509173705 | 56 | 273 | 0.0 | 0.0 | 0.04 | 0.15 | 0.15 | 99 | 1011.4 |
| 20260509173335 | 55 | 271 | 0.0 | 0.0 | 0.00 | 0.14 | 0.14 | 99 | 1028.1 |
| 20260509173204 | 55 | 271 | 0.0 | 1.0 | 0.03 | 0.14 | 0.14 | 99 | 1011.4 |
| 20260509172832 | 55 | 279 | 0.0 | 0.0 | 0.00 | 0.14 | 0.14 | 99 | 1028.3 |
| 20260509172328 | 55 | 279 | 0.0 | 0.0 | 0.07 | 0.14 | 0.14 | 99 | 1028.4 |
| 20260509172204 | 55 | 284 | 0.0 | 0.0 | 0.03 | 0.14 | 0.14 | 99 | 1011.6 |
| 20260509171824 | 55 | 284 | 0.0 | 0.0 | 0.07 | 0.14 | 0.14 | 99 | 1028.2 |
| 20260509171703 | 55 | 284 | 0.0 | 0.0 | 0.03 | 0.14 | 0.14 | 99 | 1011.5 |
| 20260509171320 | 55 | 284 | 0.0 | 0.0 | 0.05 | 0.13 | 0.13 | 99 | 1028.3 |
| 20260509171204 | 55 | 284 | 0.0 | 0.0 | 0.03 | 0.13 | 0.13 | 98 | 1011.5 |
| 20260509170817 | 56 | 284 | 0.0 | 0.0 | 0.05 | 0.13 | 0.13 | 99 | 1028.2 |
| 20260509170705 | 56 | 285 | 0.0 | 0.0 | 0.03 | 0.13 | 0.13 | 98 | 1011.6 |
| 20260509170313 | 55 | 285 | 0.0 | 0.0 | 0.07 | 0.12 | 0.12 | 98 | 1028.3 |
| 20260509170204 | 55 | 285 | 0.0 | 0.0 | 0.03 | 0.12 | 0.12 | 98 | 1011.5 |
| 20260509165813 | 55 | 285 | 0.0 | 0.0 | 0.07 | 0.12 | 0.12 | 98 | 1028.1 |
| 20260509165704 | 55 | 285 | 0.0 | 0.0 | 0.04 | 0.12 | 0.12 | 98 | 1011.5 |
| 20260509165307 | 55 | 285 | 0.0 | 0.0 | 0.00 | 0.11 | 0.11 | 98 | 1028.1 |
| 20260509165205 | 56 | 285 | 0.0 | 0.0 | 0.04 | 0.11 | 0.11 | 98 | 1011.4 |
| 20260509164803 | 56 | 286 | 0.0 | 0.0 | 0.00 | 0.11 | 0.11 | 98 | 1028.3 |
| 20260509164704 | 55 | 286 | 0.0 | 1.0 | 0.04 | 0.11 | 0.11 | 98 | 1011.6 |
| 20260509164259 | 55 | 285 | 0.0 | 2.0 | 0.00 | 0.11 | 0.11 | 98 | 1027.9 |
| 20260509164204 | 55 | 279 | 0.0 | 0.0 | 0.05 | 0.11 | 0.11 | 98 | 1011.4 |
| 20260509163756 | 55 | 278 | 0.0 | 0.0 | 0.00 | 0.11 | 0.11 | 97 | 1027.7 |
| 20260509163704 | 56 | 253 | 0.0 | 0.0 | 0.06 | 0.11 | 0.11 | 98 | 1011.0 |
| 20260509163252 | 56 | 265 | 0.0 | 0.0 | 0.00 | 0.11 | 0.11 | 98 | 1027.7 |
| 20260509163203 | 56 | 265 | 0.0 | 0.0 | 0.07 | 0.11 | 0.11 | 98 | 1011.2 |
| 20260509162751 | 56 | 265 | 0.0 | 0.0 | 0.00 | 0.11 | 0.11 | 98 | 1028.0 |
| 20260509162245 | 56 | 286 | 0.0 | 0.0 | 0.00 | 0.11 | 0.11 | 98 | 1028.1 |
| 20260509162204 | 56 | 284 | 0.0 | 0.0 | 0.08 | 0.11 | 0.11 | 98 | 1011.3 |
| 20260509161741 | 57 | 284 | 0.0 | 0.0 | 0.05 | 0.11 | 0.11 | 98 | 1028.2 |
| 20260509161705 | 56 | 284 | 0.0 | 0.0 | 0.09 | 0.11 | 0.11 | 98 | 1011.6 |
| 20260509161232 | 57 | 284 | 0.0 | 0.0 | 0.07 | 0.10 | 0.10 | 98 | 1028.3 |
| 20260509161203 | 56 | 288 | 0.0 | 1.0 | 0.08 | 0.10 | 0.10 | 98 | 1011.6 |
| 20260509160727 | 56 | 281 | 0.0 | 0.0 | 0.12 | 0.10 | 0.10 | 98 | 1028.2 |
| 20260509160703 | 56 | 278 | 0.0 | 0.0 | 0.08 | 0.10 | 0.10 | 97 | 1011.5 |
| 20260509160224 | 57 | 265 | 0.0 | 0.0 | 0.12 | 0.09 | 0.09 | 97 | 1028.6 |
| 20260509160205 | 56 | 264 | 0.0 | 0.0 | 0.08 | 0.09 | 0.09 | 97 | 1011.8 |
| 20260509155719 | 57 | 277 | 0.0 | 0.0 | 0.07 | 0.08 | 0.08 | 96 | 1028.5 |
| 20260509155704 | 56 | 280 | 0.0 | 0.0 | 0.07 | 0.08 | 0.08 | 96 | 1011.6 |
| 20260509155216 | 57 | 312 | 0.0 | 0.0 | 0.05 | 0.07 | 0.07 | 96 | 1028.3 |
| 20260509155203 | 57 | 312 | 0.0 | 0.0 | 0.06 | 0.07 | 0.07 | 96 | 1011.6 |
| 20260509154712 | 57 | 273 | 0.0 | 0.0 | 0.12 | 0.07 | 0.07 | 95 | 1028.7 |
| 20260509154705 | 57 | 273 | 0.0 | 0.0 | 0.07 | 0.07 | 0.07 | 95 | 1011.9 |
| 20260509154209 | 57 | 266 | 0.0 | 0.0 | 0.12 | 0.06 | 0.06 | 95 | 1028.7 |
| 20260509154205 | 57 | 267 | 0.0 | 0.0 | 0.06 | 0.06 | 0.06 | 95 | 1012.1 |
| 20260509153706 | 57 | 267 | 0.0 | 0.0 | 0.12 | 0.05 | 0.05 | 95 | 1029.0 |
| 20260509153204 | 58 | 274 | 0.0 | 1.0 | 0.04 | 0.04 | 0.04 | 94 | 1012.3 |
| 20260509153202 | 58 | 274 | 0.0 | 0.0 | 0.07 | 0.04 | 0.04 | 94 | 1029.1 |
| 20260509152704 | 58 | 266 | 0.0 | 0.0 | 0.03 | 0.03 | 0.03 | 94 | 1012.2 |
| 20260509152658 | 58 | 266 | 0.0 | 0.0 | 0.07 | 0.03 | 0.03 | 94 | 1028.8 |
| 20260509152205 | 57 | 266 | 0.0 | 1.0 | 0.03 | 0.03 | 0.03 | 93 | 1012.1 |
| 20260509152155 | 57 | 266 | 0.0 | 0.0 | 0.07 | 0.03 | 0.03 | 93 | 1029.0 |
| 20260509151652 | 58 | 263 | 0.0 | 0.0 | 0.00 | 0.02 | 0.02 | 93 | 1028.9 |
| 20260509151204 | 58 | 263 | 0.0 | 5.0 | 0.02 | 0.02 | 0.02 | 92 | 1012.2 |
| 20260509151149 | 58 | 264 | 0.0 | 0.0 | 0.05 | 0.02 | 0.02 | 93 | 1028.9 |
| 20260509150705 | 59 | 268 | 0.0 | 0.0 | 0.02 | 0.02 | 0.02 | 92 | 1012.1 |
| 20260509150647 | 59 | 267 | 0.0 | 0.0 | 0.05 | 0.02 | 0.02 | 92 | 1028.8 |
| 20260509150145 | 59 | 271 | 0.0 | 0.0 | 0.00 | 0.01 | 0.01 | 92 | 1028.6 |
| 20260509145705 | 59 | 271 | 0.0 | 0.0 | 0.01 | 0.01 | 0.01 | 92 | 1012.0 |
| 20260509145641 | 59 | 271 | 0.0 | 0.0 | 0.07 | 0.01 | 0.01 | 92 | 1028.7 |
| 20260509145136 | 59 | 254 | 0.0 | 0.0 | 0.07 | 0.01 | 0.01 | 91 | 1028.9 |
| 20260509144704 | 59 | 254 | 0.0 | 0.0 | 0.00 | 0.00 | 0.00 | 91 | 1012.0 |
| 20260509144633 | 59 | 254 | 0.0 | 0.0 | 0.00 | 0.00 | 0.00 | 91 | 1028.7 |
| 20260509144203 | 59 | 254 | 0.0 | 0.0 | 0.00 | 0.00 | 0.00 | 90 | 1011.8 |
| 20260509144130 | 59 | 254 | 0.0 | 0.0 | 0.00 | 0.00 | 0.00 | 90 | 1028.5 |
| 20260509143704 | 59 | 254 | 0.0 | 0.0 | 0.00 | 0.00 | 0.00 | 89 | 1011.7 |
| 20260509143627 | 59 | 254 | 0.0 | 0.0 | 0.00 | 0.00 | 0.00 | 89 | 1028.3 |
| 20260509143204 | 59 | 129 | 0.0 | 0.0 | 0.00 | 0.00 | 0.00 | 88 | 1011.8 |
| 20260509143125 | 59 | 129 | 0.0 | 0.0 | 0.00 | 0.00 | 0.00 | 88 | 1028.4 |
| 20260509142704 | 59 | 294 | 0.0 | 0.0 | 0.00 | 0.00 | 0.00 | 88 | 1011.9 |
| 20260509142620 | 59 | 294 | 0.0 | 0.0 | 0.00 | 0.00 | 0.00 | 88 | 1028.5 |
| 20260509142202 | 59 | 294 | 0.0 | 0.0 | 0.00 | 0.00 | 0.00 | 88 | 1011.8 |
| 20260509142117 | 59 | 294 | 0.0 | 0.0 | 0.00 | 0.00 | 0.00 | 88 | 1028.5 |
| 20260509141703 | 59 | 303 | 0.0 | 0.0 | 0.00 | 0.00 | 0.00 | 86 | 1011.8 |
| 20260509141613 | 59 | 300 | 0.0 | 0.0 | 0.00 | 0.00 | 0.00 | 86 | 1028.5 |
| 20260509141203 | 59 | 254 | 0.0 | 0.0 | 0.00 | 0.00 | 0.00 | 86 | 1011.7 |
| 20260509141109 | 59 | 254 | 0.0 | 0.0 | 0.00 | 0.00 | 0.00 | 86 | 1028.4 |
| 20260509140606 | 59 | 254 | 0.0 | 0.0 | 0.00 | 0.00 | 0.00 | 86 | 1028.3 |
| 20260509140204 | 58 | 254 | 0.0 | 0.0 | 0.00 | 0.00 | 0.00 | 86 | 1011.7 |
| 20260509140104 | 58 | 254 | 0.0 | 0.0 | 0.00 | 0.00 | 0.00 | 86 | 1028.4 |
| 20260509135601 | 58 | 239 | 0.0 | 0.0 | 0.00 | 0.00 | 0.00 | 87 | 1028.3 |
| 20260509135203 | 58 | 211 | 0.0 | 0.0 | 0.00 | 0.00 | 0.00 | 86 | 1011.3 |
| 20260509135059 | 58 | 208 | 0.0 | 0.0 | 0.00 | 0.00 | 0.00 | 86 | 1028.0 |
| 20260509134703 | 58 | 291 | 0.0 | 1.0 | 0.00 | 0.00 | 0.00 | 86 | 1011.6 |
| 20260509134555 | 58 | 295 | 0.0 | 0.0 | 0.00 | 0.00 | 0.00 | 86 | 1028.4 |
| 20260509134053 | 58 | 271 | 0.0 | 0.0 | 0.00 | 0.00 | 0.00 | 86 | 1028.1 |
| 20260509133704 | 58 | 271 | 0.0 | 0.0 | 0.00 | 0.00 | 0.00 | 86 | 1011.7 |
| 20260509133550 | 59 | 271 | 0.0 | 0.0 | 0.00 | 0.00 | 0.00 | 86 | 1028.5 |
| 20260509133203 | 58 | 269 | 0.0 | 0.0 | 0.00 | 0.00 | 0.00 | 87 | 1011.7 |
| 20260509133048 | 58 | 269 | 0.0 | 0.0 | 0.00 | 0.00 | 0.00 | 87 | 1028.4 |
| 20260509132703 | 57 | 269 | 0.0 | 0.0 | 0.00 | 0.00 | 0.00 | 87 | 1011.5 |
| 20260509132546 | 57 | 269 | 0.0 | 0.0 | 0.00 | 0.00 | 0.00 | 87 | 1028.2 |
| 20260509132204 | 57 | 269 | 0.0 | 0.0 | 0.00 | 0.00 | 0.00 | 87 | 1011.5 |
| 20260509132044 | 57 | 269 | 0.0 | 0.0 | 0.00 | 0.00 | 0.00 | 87 | 1028.2 |
| 20260509131703 | 56 | 259 | 0.0 | 0.0 | 0.00 | 0.00 | 0.00 | 88 | 1011.5 |
| 20260509131539 | 56 | 271 | 0.0 | 0.0 | 0.00 | 0.00 | 0.00 | 88 | 1028.2 |
| 20260509131037 | 56 | 270 | 0.0 | 0.0 | 0.00 | 0.00 | 0.00 | 89 | 1028.4 |
| 20260509130703 | 56 | 270 | 0.0 | 0.0 | 0.00 | 0.00 | 0.00 | 88 | 1011.3 |
| 20260509130532 | 56 | 270 | 0.0 | 0.0 | 0.00 | 0.00 | 0.00 | 88 | 1028.0 |
| 20260509130203 | 56 | 269 | 0.0 | 0.0 | 0.00 | 0.00 | 0.00 | 88 | 1011.1 |
| 20260509130029 | 56 | 310 | 0.0 | 0.0 | 0.00 | 0.00 | 0.00 | 88 | 1028.1 |
| 20260509125703 | 56 | 63 | 0.0 | 0.0 | 0.00 | 0.00 | 0.00 | 88 | 1011.4 |
| 20260509125525 | 56 | 64 | 0.0 | 0.0 | 0.00 | 0.00 | 0.00 | 88 | 1028.1 |
| 20260509125203 | 56 | 267 | 0.0 | 0.0 | 0.00 | 0.00 | 0.00 | 88 | 1011.4 |
| 20260509125022 | 56 | 264 | 0.0 | 0.0 | 0.00 | 0.00 | 0.00 | 88 | 1028.2 |
| 20260509124703 | 55 | 263 | 0.0 | 0.0 | 0.00 | 0.00 | 0.00 | 88 | 1011.5 |
| 20260509124513 | 56 | 253 | 0.0 | 0.0 | 0.00 | 0.00 | 0.00 | 89 | 1028.3 |
| 20260509124203 | 55 | 306 | 0.0 | 0.0 | 0.00 | 0.00 | 0.00 | 90 | 1011.7 |
| 20260509124010 | 55 | 309 | 0.0 | 0.0 | 0.00 | 0.00 | 0.00 | 90 | 1028.5 |
| 20260509123508 | 55 | 309 | 0.0 | 0.0 | 0.00 | 0.00 | 0.00 | 91 | 1028.3 |
| 20260509123203 | 55 | 301 | 0.0 | 0.0 | 0.00 | 0.00 | 0.00 | 91 | 1011.6 |
| 20260509123004 | 54 | 301 | 0.0 | 0.0 | 0.00 | 0.00 | 0.00 | 91 | 1028.4 |
| 20260509122703 | 54 | 310 | 0.0 | 0.0 | 0.00 | 0.00 | 0.00 | 91 | 1011.5 |
| 20260509122501 | 54 | 310 | 0.0 | 0.0 | 0.00 | 0.00 | 0.00 | 91 | 1028.4 |
| 20260509122204 | 54 | 310 | 0.0 | 0.0 | 0.00 | 0.00 | 0.00 | 92 | 1011.4 |
| 20260509121957 | 54 | 310 | 0.0 | 0.0 | 0.00 | 0.00 | 0.00 | 92 | 1028.1 |
| 20260509121704 | 54 | 313 | 0.0 | 0.0 | 0.00 | 0.00 | 0.00 | 93 | 1011.6 |
| 20260509121448 | 54 | 320 | 0.0 | 0.0 | 0.00 | 0.00 | 0.00 | 93 | 1028.4 |
| 20260509121205 | 53 | 320 | 0.0 | 0.0 | 0.00 | 0.00 | 0.00 | 93 | 1011.6 |
| 20260509120946 | 53 | 320 | 0.0 | 0.0 | 0.00 | 0.00 | 0.00 | 93 | 1028.1 |
| 20260509120703 | 53 | 329 | 0.0 | 0.0 | 0.00 | 0.00 | 0.00 | 93 | 1011.7 |
| 20260509120444 | 52 | 302 | 0.0 | 0.0 | 0.00 | 0.00 | 0.00 | 93 | 1028.3 |
| 20260509120203 | 52 | 300 | 0.0 | 1.0 | 0.00 | 0.00 | 0.00 | 94 | 1011.7 |
| 20260509115942 | 52 | 300 | 0.0 | 0.0 | 0.00 | 0.00 | 0.00 | 94 | 1028.4 |
| 20260509115439 | 52 | 311 | 0.0 | 0.0 | 0.00 | 0.00 | 0.00 | 94 | 1028.4 |
| 20260509114936 | 52 | 311 | 0.0 | 0.0 | 0.00 | 0.00 | 0.00 | 94 | 1028.3 |
| 20260509114704 | 52 | 311 | 0.0 | 0.0 | 0.00 | 0.00 | 0.00 | 94 | 1011.4 |
| 20260509114435 | 52 | 311 | 0.0 | 0.0 | 0.00 | 0.00 | 0.00 | 94 | 1028.3 |
| 20260509114203 | 51 | 318 | 0.0 | 0.0 | 0.00 | 0.00 | 0.00 | 94 | 1011.5 |
| 20260509113934 | 51 | 313 | 0.0 | 0.0 | 0.00 | 0.00 | 0.00 | 94 | 1028.2 |
| 20260509113703 | 51 | 291 | 0.0 | 0.0 | 0.00 | 0.00 | 0.00 | 94 | 1011.4 |
| 20260509113431 | 51 | 149 | 0.0 | 0.0 | 0.00 | 0.00 | 0.00 | 94 | 1028.1 |
| 20260509113205 | 51 | 308 | 0.0 | 0.0 | 0.00 | 0.00 | 0.00 | 94 | 1011.3 |
| 20260509112927 | 51 | 282 | 0.0 | 0.0 | 0.00 | 0.00 | 0.00 | 94 | 1028.1 |
| 20260509112703 | 51 | 282 | 0.0 | 0.0 | 0.00 | 0.00 | 0.00 | 94 | 1011.5 |
| 20260509112425 | 51 | 282 | 0.0 | 0.0 | 0.00 | 0.00 | 0.00 | 94 | 1028.2 |
| 20260509112203 | 51 | 282 | 0.0 | 0.0 | 0.00 | 0.00 | 0.00 | 94 | 1011.4 |
| 20260509111921 | 51 | 282 | 0.0 | 0.0 | 0.00 | 0.00 | 0.00 | 94 | 1028.1 |
| 20260509111703 | 51 | 282 | 0.0 | 0.0 | 0.00 | 0.00 | 0.00 | 94 | 1011.4 |
| 20260509111418 | 51 | 281 | 0.0 | 0.0 | 0.00 | 0.00 | 0.00 | 94 | 1028.0 |
| 20260509111204 | 51 | 281 | 0.0 | 3.0 | 0.00 | 0.00 | 0.00 | 93 | 1011.5 |
| 20260509110915 | 51 | 281 | 0.0 | 3.0 | 0.00 | 0.00 | 0.00 | 93 | 1028.1 |
| 20260509110703 | 51 | 234 | 0.0 | 0.0 | 0.00 | 0.00 | 0.00 | 94 | 1011.5 |
| 20260509110411 | 51 | 310 | 0.0 | 0.0 | 0.00 | 0.00 | 0.00 | 94 | 1028.1 |
| 20260509110203 | 51 | 307 | 0.0 | 0.0 | 0.00 | 0.00 | 0.00 | 94 | 1011.5 |
| 20260509105909 | 50 | 129 | 0.0 | 0.0 | 0.00 | 0.00 | 0.00 | 94 | 1028.2 |
| 20260509105704 | 50 | 129 | 0.0 | 0.0 | 0.00 | 0.00 | 0.00 | 94 | 1011.4 |
| 20260509105408 | 50 | 129 | 0.0 | 0.0 | 0.00 | 0.00 | 0.00 | 94 | 1028.0 |
| 20260509105204 | 50 | 130 | 0.0 | 1.0 | 0.00 | 0.00 | 0.00 | 94 | 1011.3 |
| 20260509104904 | 50 | 324 | 0.0 | 2.0 | 0.00 | 0.00 | 0.00 | 94 | 1027.9 |
| 20260509104704 | 50 | 312 | 0.0 | 0.0 | 0.00 | 0.00 | 0.00 | 94 | 1011.1 |
| 20260509104401 | 50 | 317 | 0.0 | 0.0 | 0.00 | 0.00 | 0.00 | 94 | 1027.8 |
| 20260509104203 | 50 | 316 | 0.0 | 1.0 | 0.00 | 0.00 | 0.00 | 94 | 1011.2 |
| 20260509103859 | 50 | 309 | 0.0 | 0.0 | 0.00 | 0.00 | 0.00 | 94 | 1027.8 |
| 20260509103704 | 50 | 299 | 0.0 | 0.0 | 0.00 | 0.00 | 0.00 | 94 | 1011.2 |
| 20260509103355 | 50 | 280 | 0.0 | 0.0 | 0.00 | 0.00 | 0.00 | 94 | 1028.0 |
| 20260509103203 | 50 | 280 | 0.0 | 0.0 | 0.00 | 0.00 | 0.00 | 94 | 1011.4 |
| 20260509102854 | 50 | 280 | 0.0 | 0.0 | 0.00 | 0.00 | 0.00 | 93 | 1027.9 |
| 20260509102704 | 50 | 279 | 0.0 | 0.0 | 0.00 | 0.00 | 0.00 | 93 | 1011.2 |
| 20260509102351 | 50 | 279 | 0.0 | 0.0 | 0.00 | 0.00 | 0.00 | 93 | 1028.0 |
| 20260509102206 | 50 | 314 | 0.0 | 0.0 | 0.00 | 0.00 | 0.00 | 93 | 1011.3 |
| 20260509101847 | 50 | 315 | 0.0 | 0.0 | 0.00 | 0.00 | 0.00 | 93 | 1028.0 |
| 20260509101343 | 50 | 315 | 0.0 | 0.0 | 0.00 | 0.00 | 0.00 | 93 | 1027.9 |
| 20260509101205 | 50 | 315 | 0.0 | 0.0 | 0.00 | 0.00 | 0.00 | 93 | 1011.1 |
| 20260509100841 | 50 | 315 | 0.0 | 0.0 | 0.00 | 0.00 | 0.00 | 93 | 1027.7 |
| 20260509100704 | 50 | 305 | 0.0 | 0.0 | 0.00 | 0.00 | 0.00 | 93 | 1011.2 |
| 20260509100338 | 50 | 305 | 0.0 | 0.0 | 0.00 | 0.00 | 0.00 | 93 | 1027.8 |
| 20260509100205 | 50 | 305 | 0.0 | 0.0 | 0.00 | 0.00 | 0.00 | 93 | 1011.0 |
| 20260509095835 | 50 | 305 | 0.0 | 0.0 | 0.00 | 0.00 | 0.00 | 93 | 1027.5 |
| 20260509095703 | 50 | 305 | 0.0 | 0.0 | 0.00 | 0.00 | 0.00 | 93 | 1011.0 |
| 20260509095332 | 50 | 305 | 0.0 | 0.0 | 0.00 | 0.00 | 0.00 | 92 | 1027.7 |
| 20260509095203 | 50 | 305 | 0.0 | 0.0 | 0.00 | 0.00 | 0.00 | 92 | 1011.0 |
| 20260509094829 | 50 | 305 | 0.0 | 0.0 | 0.00 | 0.00 | 0.00 | 92 | 1027.7 |
| 20260509094705 | 50 | 304 | 0.0 | 0.0 | 0.00 | 0.00 | 0.00 | 92 | 1011.1 |
| 20260509094326 | 50 | 304 | 0.0 | 0.0 | 0.00 | 0.00 | 0.00 | 92 | 1027.7 |
| 20260509093823 | 50 | 326 | 0.0 | 0.0 | 0.00 | 0.00 | 0.00 | 92 | 1027.8 |
| 20260509093703 | 50 | 349 | 0.0 | 0.0 | 0.00 | 0.00 | 0.00 | 92 | 1011.1 |
| 20260509093320 | 50 | 349 | 0.0 | 0.0 | 0.00 | 0.00 | 0.00 | 91 | 1027.8 |
| 20260509093203 | 50 | 349 | 0.0 | 0.0 | 0.00 | 0.00 | 0.00 | 91 | 1011.1 |
| 20260509092819 | 50 | 349 | 0.0 | 0.0 | 0.00 | 0.00 | 0.00 | 91 | 1028.0 |
| 20260509092703 | 50 | 349 | 0.0 | 0.0 | 0.00 | 0.00 | 0.00 | 91 | 1011.3 |
| 20260509092316 | 50 | 349 | 0.0 | 0.0 | 0.00 | 0.00 | 0.00 | 91 | 1027.6 |
| 20260509092204 | 50 | 349 | 0.0 | 0.0 | 0.00 | 0.00 | 0.00 | 91 | 1011.2 |
| 20260509091814 | 50 | 349 | 0.0 | 0.0 | 0.00 | 0.00 | 0.00 | 91 | 1027.9 |
| 20260509091704 | 50 | 349 | 0.0 | 0.0 | 0.00 | 0.00 | 0.00 | 91 | 1011.2 |
| 20260509091311 | 50 | 349 | 0.0 | 0.0 | 0.00 | 0.00 | 0.00 | 91 | 1027.8 |
| 20260509091203 | 50 | 349 | 0.0 | 0.0 | 0.00 | 0.00 | 0.00 | 91 | 1011.0 |
| 20260509090808 | 50 | 349 | 0.0 | 0.0 | 0.00 | 0.00 | 0.00 | 91 | 1027.9 |
| 20260509090305 | 50 | 349 | 0.0 | 0.0 | 0.00 | 0.00 | 0.00 | 90 | 1027.9 |
| 20260509090205 | 50 | 349 | 0.0 | 0.0 | 0.00 | 0.00 | 0.00 | 90 | 1011.1 |
| 20260509085802 | 50 | 349 | 0.0 | 0.0 | 0.00 | 0.00 | 0.00 | 90 | 1027.7 |
| 20260509085704 | 51 | 349 | 0.0 | 0.0 | 0.00 | 0.00 | 0.00 | 90 | 1011.3 |
| 20260509085300 | 51 | 349 | 0.0 | 0.0 | 0.00 | 0.00 | 0.00 | 90 | 1028.0 |
| 20260509085204 | 51 | 349 | 0.0 | 0.0 | 0.00 | 0.00 | 0.00 | 89 | 1011.3 |
| 20260509084756 | 51 | 349 | 0.0 | 0.0 | 0.00 | 0.00 | 0.00 | 89 | 1027.9 |
| 20260509084704 | 51 | 349 | 0.0 | 0.0 | 0.00 | 0.00 | 0.00 | 89 | 1011.3 |
| 20260509084253 | 51 | 349 | 0.0 | 0.0 | 0.00 | 0.00 | 0.00 | 88 | 1028.3 |
| 20260509084204 | 51 | 349 | 0.0 | 0.0 | 0.00 | 0.00 | 0.00 | 88 | 1011.5 |
| 20260509083751 | 51 | 349 | 0.0 | 0.0 | 0.00 | 0.00 | 0.00 | 88 | 1027.9 |
| 20260509083247 | 51 | 349 | 0.0 | 0.0 | 0.00 | 0.00 | 0.00 | 88 | 1028.3 |
| 20260509083204 | 51 | 349 | 0.0 | 0.0 | 0.00 | 0.00 | 0.00 | 88 | 1011.5 |
| 20260509082744 | 51 | 349 | 0.0 | 0.0 | 0.00 | 0.00 | 0.00 | 88 | 1028.2 |
| 20260509082704 | 51 | 349 | 0.0 | 0.0 | 0.00 | 0.00 | 0.00 | 88 | 1011.3 |
| 20260509082241 | 51 | 349 | 0.0 | 0.0 | 0.00 | 0.00 | 0.00 | 88 | 1028.2 |
| 20260509081737 | 51 | 349 | 0.0 | 0.0 | 0.00 | 0.00 | 0.00 | 88 | 1028.1 |
| 20260509081704 | 51 | 349 | 0.0 | 0.0 | 0.00 | 0.00 | 0.00 | 88 | 1011.4 |
| 20260509081235 | 51 | 349 | 0.0 | 0.0 | 0.00 | 0.00 | 0.00 | 88 | 1028.1 |
| 20260509080733 | 51 | 349 | 0.0 | 0.0 | 0.00 | 0.00 | 0.00 | 87 | 1027.8 |
| 20260509080230 | 51 | 349 | 0.0 | 0.0 | 0.00 | 0.00 | 0.00 | 87 | 1028.1 |
| 20260509080203 | 51 | 349 | 0.0 | 0.0 | 0.00 | 0.00 | 0.00 | 87 | 1011.5 |
| 20260509075729 | 51 | 349 | 0.0 | 0.0 | 0.00 | 0.00 | 0.00 | 88 | 1028.4 |
| 20260509075703 | 51 | 349 | 0.0 | 0.0 | 0.00 | 0.00 | 0.00 | 88 | 1011.6 |
| 20260509075226 | 51 | 349 | 0.0 | 0.0 | 0.00 | 0.00 | 0.00 | 88 | 1028.3 |
| 20260509075203 | 51 | 349 | 0.0 | 0.0 | 0.00 | 0.00 | 0.00 | 88 | 1011.6 |
| 20260509074723 | 51 | 349 | 0.0 | 0.0 | 0.00 | 0.00 | 0.00 | 88 | 1028.3 |
| 20260509074703 | 51 | 349 | 0.0 | 0.0 | 0.00 | 0.00 | 0.00 | 88 | 1011.7 |
| 20260509074220 | 51 | 349 | 0.0 | 0.0 | 0.00 | 0.00 | 0.00 | 88 | 1028.2 |
| 20260509074204 | 50 | 349 | 0.0 | 0.0 | 0.00 | 0.00 | 0.00 | 88 | 1011.6 |
| 20260509073716 | 50 | 349 | 0.0 | 0.0 | 0.00 | 0.00 | 0.00 | 89 | 1028.4 |
| 20260509073704 | 50 | 349 | 0.0 | 0.0 | 0.00 | 0.00 | 0.00 | 89 | 1011.6 |
| 20260509073213 | 50 | 349 | 0.0 | 0.0 | 0.00 | 0.00 | 0.00 | 90 | 1028.2 |
| 20260509072709 | 50 | 349 | 0.0 | 0.0 | 0.00 | 0.00 | 0.00 | 91 | 1028.3 |
| 20260509072705 | 50 | 349 | 0.0 | 0.0 | 0.00 | 0.00 | 0.00 | 91 | 1011.6 |
| 20260509072206 | 49 | 349 | 0.0 | 0.0 | 0.00 | 0.00 | 0.00 | 92 | 1028.0 |
| 20260509071704 | 49 | 349 | 0.0 | 0.0 | 0.00 | 0.00 | 0.00 | 92 | 1011.6 |
| 20260509071204 | 49 | 349 | 0.0 | 0.0 | 0.00 | 0.00 | 0.00 | 93 | 1011.4 |
| 20260509071200 | 49 | 349 | 0.0 | 0.0 | 0.00 | 0.00 | 0.00 | 93 | 1028.1 |
| 20260509070703 | 49 | 349 | 0.0 | 0.0 | 0.00 | 0.00 | 0.00 | 92 | 1011.4 |
| 20260509070657 | 49 | 349 | 0.0 | 0.0 | 0.00 | 0.00 | 0.00 | 93 | 1028.3 |
| 20260509070204 | 49 | 349 | 0.0 | 0.0 | 0.00 | 0.00 | 0.00 | 92 | 1011.6 |
| 20260509070153 | 49 | 349 | 0.0 | 0.0 | 0.00 | 0.00 | 0.00 | 92 | 1028.1 |
| 20260509065704 | 49 | 349 | 0.0 | 0.0 | 0.00 | 0.00 | 0.00 | 92 | 1011.6 |
| 20260509065649 | 49 | 349 | 0.0 | 0.0 | 0.00 | 0.00 | 0.00 | 92 | 1028.3 |
| 20260509065205 | 49 | 348 | 0.0 | 0.0 | 0.00 | 0.00 | 0.00 | 92 | 1011.6 |
| 20260509065146 | 49 | 348 | 0.0 | 0.0 | 0.00 | 0.00 | 0.00 | 92 | 1028.1 |
| 20260509064643 | 49 | 348 | 0.0 | 0.0 | 0.00 | 0.00 | 0.00 | 92 | 1028.3 |
| 20260509064203 | 50 | 348 | 0.0 | 0.0 | 0.00 | 0.00 | 0.00 | 91 | 1011.6 |
| 20260509064141 | 50 | 348 | 0.0 | 0.0 | 0.00 | 0.00 | 0.00 | 91 | 1028.5 |
| 20260509063637 | 50 | 348 | 0.0 | 0.0 | 0.00 | 0.00 | 0.00 | 90 | 1028.4 |
| 20260509063204 | 50 | 348 | 0.0 | 0.0 | 0.00 | 0.00 | 0.00 | 90 | 1011.8 |
| 20260509063134 | 50 | 348 | 0.0 | 0.0 | 0.00 | 0.00 | 0.00 | 90 | 1028.5 |
| 20260509062704 | 51 | 349 | 0.0 | 0.0 | 0.00 | 0.00 | 0.00 | 90 | 1011.8 |
| 20260509062631 | 51 | 349 | 0.0 | 0.0 | 0.00 | 0.00 | 0.00 | 90 | 1028.5 |
| 20260509062204 | 51 | 349 | 0.0 | 0.0 | 0.00 | 0.00 | 0.00 | 89 | 1011.6 |
| 20260509062128 | 51 | 349 | 0.0 | 0.0 | 0.00 | 0.00 | 0.00 | 89 | 1028.3 |
| 20260509061625 | 51 | 349 | 0.0 | 0.0 | 0.00 | 0.00 | 0.00 | 88 | 1028.5 |
| 20260509061204 | 51 | 348 | 0.0 | 0.0 | 0.00 | 0.00 | 0.00 | 87 | 1012.0 |
| 20260509061122 | 51 | 348 | 0.0 | 0.0 | 0.00 | 0.00 | 0.00 | 87 | 1028.7 |
| 20260509060704 | 51 | 348 | 0.0 | 0.0 | 0.00 | 0.00 | 0.00 | 87 | 1012.1 |
| 20260509060620 | 51 | 348 | 0.0 | 0.0 | 0.00 | 0.00 | 0.00 | 87 | 1028.9 |
| 20260509060204 | 51 | 348 | 0.0 | 0.0 | 0.00 | 0.00 | 0.00 | 86 | 1012.0 |
| 20260509060115 | 51 | 348 | 0.0 | 0.0 | 0.00 | 0.00 | 0.00 | 86 | 1028.7 |
| 20260509055704 | 52 | 348 | 0.0 | 0.0 | 0.00 | 0.00 | 0.00 | 86 | 1012.3 |
| 20260509055611 | 52 | 348 | 0.0 | 0.0 | 0.00 | 0.00 | 0.00 | 86 | 1029.1 |
| 20260509055205 | 52 | 348 | 0.0 | 0.0 | 0.00 | 0.00 | 0.00 | 86 | 1012.3 |
| 20260509055107 | 52 | 348 | 0.0 | 0.0 | 0.00 | 0.00 | 0.00 | 86 | 1029.0 |
| 20260509054705 | 53 | 348 | 0.0 | 0.0 | 0.00 | 0.00 | 0.00 | 85 | 1012.3 |
| 20260509054604 | 53 | 348 | 0.0 | 0.0 | 0.00 | 0.00 | 0.00 | 85 | 1028.9 |
| 20260509054204 | 53 | 348 | 0.0 | 0.0 | 0.00 | 0.00 | 0.00 | 85 | 1012.3 |
| 20260509054102 | 53 | 348 | 0.0 | 0.0 | 0.00 | 0.00 | 0.00 | 85 | 1029.0 |
| 20260509053705 | 53 | 348 | 0.0 | 0.0 | 0.00 | 0.00 | 0.00 | 85 | 1012.6 |
| 20260509053600 | 53 | 348 | 0.0 | 0.0 | 0.00 | 0.00 | 0.00 | 85 | 1029.2 |
| 20260509053206 | 53 | 348 | 0.0 | 0.0 | 0.00 | 0.00 | 0.00 | 85 | 1012.3 |
| 20260509053057 | 53 | 348 | 0.0 | 0.0 | 0.00 | 0.00 | 0.00 | 85 | 1029.0 |
| 20260509052555 | 53 | 348 | 0.0 | 0.0 | 0.00 | 0.00 | 0.00 | 84 | 1029.1 |
| 20260509052204 | 53 | 348 | 0.0 | 0.0 | 0.00 | 0.00 | 0.00 | 84 | 1012.5 |
| 20260509052053 | 53 | 348 | 0.0 | 0.0 | 0.00 | 0.00 | 0.00 | 84 | 1029.2 |
| 20260509051704 | 53 | 348 | 0.0 | 0.0 | 0.00 | 0.00 | 0.00 | 83 | 1012.6 |
| 20260509051550 | 53 | 348 | 0.0 | 0.0 | 0.00 | 0.00 | 0.00 | 83 | 1029.3 |
| 20260509051203 | 53 | 348 | 0.0 | 0.0 | 0.00 | 0.00 | 0.00 | 84 | 1012.4 |
| 20260509051047 | 53 | 348 | 0.0 | 0.0 | 0.00 | 0.00 | 0.00 | 84 | 1029.1 |
| 20260509050703 | 53 | 348 | 0.0 | 0.0 | 0.00 | 0.00 | 0.00 | 83 | 1012.4 |
| 20260509050544 | 53 | 348 | 0.0 | 0.0 | 0.00 | 0.00 | 0.00 | 83 | 1029.0 |
| 20260509050206 | 54 | 348 | 0.0 | 0.0 | 0.00 | 0.00 | 0.00 | 83 | 1012.7 |
| 20260509050040 | 54 | 348 | 0.0 | 0.0 | 0.00 | 0.00 | 0.00 | 83 | 1029.2 |
| 20260509045703 | 54 | 348 | 0.0 | 0.0 | 0.00 | 0.00 | 0.00 | 82 | 1012.4 |
| 20260509045538 | 54 | 348 | 0.0 | 0.0 | 0.00 | 0.00 | 0.00 | 82 | 1029.1 |
| 20260509045203 | 54 | 348 | 0.0 | 0.0 | 0.00 | 0.00 | 0.00 | 83 | 1012.6 |
| 20260509045035 | 54 | 348 | 0.0 | 0.0 | 0.00 | 0.00 | 0.00 | 83 | 1029.3 |
| 20260509044704 | 54 | 348 | 0.0 | 0.0 | 0.00 | 0.00 | 0.00 | 83 | 1012.6 |
| 20260509044532 | 54 | 348 | 0.0 | 0.0 | 0.00 | 0.00 | 0.00 | 83 | 1029.1 |
| 20260509044205 | 54 | 348 | 0.0 | 0.0 | 0.00 | 0.00 | 0.00 | 83 | 1012.7 |
| 20260509044030 | 54 | 348 | 0.0 | 0.0 | 0.00 | 0.00 | 0.00 | 83 | 1029.3 |
| 20260509043704 | 54 | 348 | 0.0 | 0.0 | 0.00 | 0.00 | 0.00 | 82 | 1012.7 |
| 20260509043526 | 54 | 348 | 0.0 | 0.0 | 0.00 | 0.00 | 0.00 | 82 | 1029.3 |
| 20260509043206 | 54 | 348 | 0.0 | 0.0 | 0.00 | 0.00 | 0.00 | 80 | 1012.6 |
| 20260509043016 | 54 | 348 | 0.0 | 0.0 | 0.00 | 0.00 | 0.00 | 79 | 1029.5 |
| 20260509042703 | 54 | 348 | 0.0 | 0.0 | 0.00 | 0.00 | 0.00 | 81 | 1012.7 |
| 20260509042512 | 54 | 348 | 0.0 | 0.0 | 0.00 | 0.00 | 0.00 | 81 | 1029.4 |
| 20260509042204 | 54 | 348 | 0.0 | 0.0 | 0.00 | 0.00 | 0.00 | 81 | 1012.5 |
| 20260509042009 | 55 | 348 | 0.0 | 0.0 | 0.00 | 0.00 | 0.00 | 81 | 1029.2 |
| 20260509041704 | 55 | 348 | 0.0 | 0.0 | 0.00 | 0.00 | 0.00 | 80 | 1012.5 |
| 20260509041506 | 55 | 348 | 0.0 | 0.0 | 0.00 | 0.00 | 0.00 | 80 | 1029.2 |
| 20260509041203 | 54 | 348 | 0.0 | 0.0 | 0.00 | 0.00 | 0.00 | 79 | 1012.5 |
| 20260509041003 | 54 | 348 | 0.0 | 0.0 | 0.00 | 0.00 | 0.00 | 79 | 1029.2 |
| 20260509040501 | 54 | 348 | 0.0 | 0.0 | 0.00 | 0.00 | 0.00 | 82 | 1029.1 |
| 20260509040203 | 54 | 348 | 0.0 | 0.0 | 0.00 | 0.00 | 0.00 | 81 | 1012.3 |
| 20260509035957 | 54 | 348 | 0.0 | 0.0 | 0.00 | 0.00 | 0.00 | 81 | 1029.0 |
| 20260509035454 | 54 | 348 | 0.0 | 0.0 | 0.00 | 0.00 | 0.00 | 81 | 1029.1 |
| 20260509035203 | 54 | 348 | 0.0 | 0.0 | 0.00 | 0.23 | 0.00 | 80 | 1012.5 |
| 20260509034950 | 54 | 349 | 0.0 | 0.0 | 0.00 | 0.00 | 0.00 | 80 | 1029.2 |
| 20260509034703 | 55 | 349 | 0.0 | 0.0 | 0.00 | 0.23 | 0.00 | 78 | 1012.4 |
| 20260509034449 | 55 | 153 | 0.0 | 0.0 | 0.00 | 0.00 | 0.00 | 77 | 1029.1 |
| 20260509034204 | 54 | 153 | 0.0 | 0.0 | 0.00 | 0.23 | 0.00 | 76 | 1012.6 |
| 20260509033945 | 54 | 153 | 0.0 | 0.0 | 0.00 | 0.00 | 0.00 | 76 | 1029.3 |
| 20260509033442 | 54 | 153 | 0.0 | 0.0 | 0.00 | 0.00 | 0.00 | 77 | 1029.3 |
| 20260509033204 | 54 | 153 | 0.0 | 0.0 | 0.00 | 0.23 | 0.00 | 76 | 1012.7 |
| 20260509032939 | 54 | 153 | 0.0 | 0.0 | 0.00 | 0.00 | 0.00 | 76 | 1029.5 |
| 20260509032705 | 54 | 153 | 0.0 | 0.0 | 0.00 | 0.23 | 0.00 | 77 | 1012.7 |
| 20260509032437 | 54 | 153 | 0.0 | 0.0 | 0.00 | 0.00 | 0.00 | 77 | 1029.3 |
| 20260509032204 | 54 | 153 | 0.0 | 0.0 | 0.00 | 0.23 | 0.00 | 77 | 1012.8 |
| 20260509031934 | 54 | 153 | 0.0 | 0.0 | 0.00 | 0.00 | 0.00 | 78 | 1029.2 |
| 20260509031703 | 54 | 153 | 0.0 | 0.0 | 0.00 | 0.23 | 0.00 | 77 | 1012.9 |
| 20260509031431 | 54 | 153 | 0.0 | 0.0 | 0.00 | 0.00 | 0.00 | 77 | 1029.5 |
| 20260509030929 | 55 | 153 | 0.0 | 0.0 | 0.00 | 0.00 | 0.00 | 77 | 1029.7 |
| 20260509030704 | 55 | 153 | 0.0 | 0.0 | 0.00 | 0.23 | 0.00 | 77 | 1012.9 |
| 20260509030427 | 55 | 153 | 0.0 | 0.0 | 0.00 | 0.00 | 0.00 | 77 | 1029.4 |
| 20260509030204 | 55 | 153 | 0.0 | 0.0 | 0.00 | 0.23 | 0.00 | 77 | 1013.0 |
| 20260509025924 | 55 | 153 | 0.0 | 0.0 | 0.00 | 0.00 | 0.00 | 77 | 1029.7 |
| 20260509025704 | 55 | 153 | 0.0 | 0.0 | 0.00 | 0.23 | 0.00 | 76 | 1012.9 |
| 20260509025419 | 55 | 153 | 0.0 | 0.0 | 0.00 | 0.00 | 0.00 | 76 | 1029.9 |
| 20260509025203 | 55 | 153 | 0.0 | 0.0 | 0.00 | 0.23 | 0.00 | 75 | 1012.8 |
| 20260509024914 | 55 | 153 | 0.0 | 0.0 | 0.00 | 0.00 | 0.00 | 75 | 1029.6 |
| 20260509024703 | 55 | 153 | 0.0 | 0.0 | 0.00 | 0.23 | 0.00 | 74 | 1012.8 |
| 20260509024411 | 55 | 153 | 0.0 | 0.0 | 0.00 | 0.00 | 0.00 | 74 | 1029.7 |
| 20260509024203 | 55 | 153 | 0.0 | 0.0 | 0.00 | 0.23 | 0.00 | 73 | 1013.0 |
| 20260509023908 | 55 | 153 | 0.0 | 0.0 | 0.00 | 0.00 | 0.00 | 72 | 1029.8 |
| 20260509023704 | 55 | 153 | 0.0 | 0.0 | 0.00 | 0.23 | 0.00 | 72 | 1012.8 |
| 20260509023405 | 55 | 153 | 0.0 | 0.0 | 0.00 | 0.00 | 0.00 | 73 | 1029.6 |
| 20260509023203 | 55 | 153 | 0.0 | 0.0 | 0.00 | 0.23 | 0.00 | 73 | 1012.6 |
| 20260509022901 | 55 | 153 | 0.0 | 0.0 | 0.00 | 0.00 | 0.00 | 74 | 1029.3 |
| 20260509022703 | 55 | 153 | 0.0 | 0.0 | 0.00 | 0.23 | 0.00 | 74 | 1012.6 |
| 20260509022359 | 55 | 153 | 0.0 | 0.0 | 0.00 | 0.00 | 0.00 | 74 | 1029.5 |
| 20260509022204 | 55 | 153 | 0.0 | 0.0 | 0.00 | 0.23 | 0.00 | 73 | 1012.7 |
| 20260509021856 | 56 | 153 | 0.0 | 0.0 | 0.00 | 0.00 | 0.00 | 72 | 1029.3 |
| 20260509021353 | 56 | 154 | 0.0 | 0.0 | 0.00 | 0.00 | 0.00 | 69 | 1029.4 |
| 20260509021204 | 55 | 154 | 0.0 | 0.0 | 0.00 | 0.23 | 0.00 | 69 | 1012.7 |
| 20260509020850 | 56 | 154 | 0.0 | 0.0 | 0.00 | 0.00 | 0.00 | 70 | 1029.7 |
| 20260509020703 | 55 | 154 | 0.0 | 0.0 | 0.00 | 0.23 | 0.00 | 70 | 1012.9 |
| 20260509020349 | 56 | 154 | 0.0 | 0.0 | 0.00 | 0.00 | 0.00 | 70 | 1029.4 |
| 20260509020203 | 56 | 154 | 0.0 | 0.0 | 0.00 | 0.23 | 0.00 | 71 | 1012.9 |
| 20260509015845 | 56 | 153 | 0.0 | 0.0 | 0.00 | 0.00 | 0.00 | 71 | 1029.4 |
| 20260509015703 | 56 | 153 | 0.0 | 0.0 | 0.00 | 0.23 | 0.00 | 70 | 1012.7 |
| 20260509015344 | 56 | 154 | 0.0 | 0.0 | 0.00 | 0.00 | 0.00 | 69 | 1029.5 |
| 20260509015203 | 56 | 154 | 0.0 | 0.0 | 0.00 | 0.23 | 0.00 | 69 | 1012.8 |
| 20260509014840 | 56 | 154 | 0.0 | 0.0 | 0.00 | 0.00 | 0.00 | 70 | 1029.3 |
| 20260509014703 | 56 | 154 | 0.0 | 0.0 | 0.00 | 0.23 | 0.00 | 70 | 1012.7 |
| 20260509014337 | 56 | 154 | 0.0 | 0.0 | 0.00 | 0.00 | 0.00 | 69 | 1029.4 |
| 20260509013834 | 56 | 154 | 0.0 | 0.0 | 0.00 | 0.00 | 0.00 | 68 | 1029.4 |
| 20260509013704 | 56 | 154 | 0.0 | 0.0 | 0.00 | 0.23 | 0.00 | 68 | 1012.5 |
| 20260509013330 | 57 | 154 | 0.0 | 0.0 | 0.00 | 0.00 | 0.00 | 67 | 1029.1 |
| 20260509013204 | 57 | 154 | 0.0 | 0.0 | 0.00 | 0.23 | 0.00 | 67 | 1012.6 |
| 20260509012821 | 57 | 154 | 0.0 | 0.0 | 0.00 | 0.00 | 0.00 | 68 | 1029.1 |
| 20260509012704 | 57 | 154 | 0.0 | 0.0 | 0.00 | 0.23 | 0.00 | 67 | 1012.2 |
| 20260509012317 | 57 | 154 | 0.0 | 0.0 | 0.00 | 0.00 | 0.00 | 67 | 1029.0 |
| 20260509012203 | 57 | 154 | 0.0 | 0.0 | 0.00 | 0.23 | 0.00 | 66 | 1012.0 |
| 20260509011815 | 58 | 154 | 0.0 | 0.0 | 0.00 | 0.00 | 0.00 | 65 | 1028.9 |
| 20260509011705 | 58 | 154 | 0.0 | 0.0 | 0.00 | 0.23 | 0.00 | 62 | 1012.1 |
| 20260509011312 | 58 | 154 | 0.0 | 0.0 | 0.00 | 0.00 | 0.00 | 60 | 1028.8 |
| 20260509011204 | 58 | 154 | 0.0 | 0.0 | 0.00 | 0.23 | 0.00 | 61 | 1012.1 |
| 20260509010809 | 58 | 154 | 0.0 | 0.0 | 0.00 | 0.00 | 0.00 | 60 | 1029.0 |
| 20260509010703 | 58 | 154 | 0.0 | 0.0 | 0.00 | 0.23 | 0.00 | 60 | 1012.3 |
| 20260509010306 | 58 | 154 | 0.0 | 0.0 | 0.00 | 0.00 | 0.00 | 60 | 1028.7 |
| 20260509010203 | 58 | 154 | 0.0 | 0.0 | 0.00 | 0.23 | 0.00 | 60 | 1012.2 |
| 20260509005758 | 58 | 154 | 0.0 | 0.0 | 0.00 | 0.00 | 0.00 | 59 | 1028.7 |
| 20260509005704 | 58 | 154 | 0.0 | 0.0 | 0.00 | 0.23 | 0.00 | 59 | 1011.9 |
| 20260509005256 | 58 | 154 | 0.0 | 0.0 | 0.00 | 0.00 | 0.00 | 58 | 1028.5 |
| 20260509005204 | 58 | 154 | 0.0 | 0.0 | 0.00 | 0.23 | 0.00 | 58 | 1011.8 |
| 20260509004755 | 58 | 154 | 0.0 | 0.0 | 0.00 | 0.00 | 0.00 | 58 | 1028.8 |
| 20260509004704 | 58 | 153 | 0.0 | 0.0 | 0.00 | 0.23 | 0.00 | 59 | 1011.8 |
| 20260509004252 | 58 | 153 | 0.0 | 0.0 | 0.00 | 0.00 | 0.00 | 58 | 1028.6 |
| 20260509004203 | 58 | 153 | 0.0 | 0.0 | 0.00 | 0.23 | 0.00 | 58 | 1011.7 |
| 20260509003750 | 59 | 153 | 0.0 | 0.0 | 0.00 | 0.00 | 0.00 | 58 | 1028.3 |
| 20260509003704 | 58 | 154 | 0.0 | 0.0 | 0.00 | 0.23 | 0.00 | 58 | 1011.8 |
| 20260509003247 | 59 | 154 | 0.0 | 0.0 | 0.00 | 0.00 | 0.00 | 57 | 1028.4 |
| 20260509003203 | 58 | 153 | 0.0 | 0.0 | 0.00 | 0.23 | 0.00 | 56 | 1011.7 |
| 20260509002744 | 58 | 153 | 0.0 | 0.0 | 0.00 | 0.00 | 0.00 | 56 | 1028.3 |
| 20260509002704 | 58 | 153 | 0.0 | 0.0 | 0.00 | 0.23 | 0.00 | 56 | 1011.5 |
| 20260509002242 | 59 | 153 | 0.0 | 0.0 | 0.00 | 0.00 | 0.00 | 56 | 1028.2 |
| 20260509002204 | 59 | 153 | 0.0 | 0.0 | 0.00 | 0.23 | 0.00 | 55 | 1011.6 |
| 20260509001740 | 59 | 153 | 0.0 | 0.0 | 0.00 | 0.00 | 0.00 | 55 | 1028.2 |
| 20260509001704 | 59 | 153 | 0.0 | 0.0 | 0.00 | 0.23 | 0.00 | 55 | 1011.4 |
| 20260509001235 | 59 | 134 | 0.0 | 0.0 | 0.00 | 0.00 | 0.00 | 55 | 1028.2 |
| 20260509001203 | 59 | 283 | 0.0 | 3.0 | 0.00 | 0.23 | 0.00 | 55 | 1011.4 |
| 20260509000733 | 60 | 286 | 0.0 | 3.0 | 0.00 | 0.00 | 0.00 | 54 | 1027.9 |
| 20260509000703 | 60 | 286 | 0.0 | 3.0 | 0.00 | 0.23 | 0.00 | 54 | 1011.3 |
| 20260509000230 | 60 | 267 | 0.0 | 0.0 | 0.00 | 0.00 | 0.00 | 54 | 1028.0 |
| 20260509000204 | 60 | 267 | 0.0 | 0.0 | 0.00 | 0.23 | 0.00 | 54 | 1011.3 |
| 20260508235727 | 60 | 257 | 0.0 | 0.0 | 0.00 | 0.00 | 0.00 | 54 | 1027.9 |
| 20260508235704 | 60 | 254 | 0.0 | 0.0 | 0.00 | 0.23 | 0.00 | 54 | 1011.2 |
| 20260508235224 | 60 | 281 | 0.0 | 0.0 | 0.00 | 0.00 | 0.00 | 54 | 1028.0 |
| 20260508235203 | 60 | 281 | 0.0 | 1.0 | 0.00 | 0.23 | 0.00 | 55 | 1011.3 |
| 20260508234721 | 60 | 281 | 0.0 | 2.0 | 0.00 | 0.00 | 0.00 | 53 | 1028.1 |
| 20260508234703 | 60 | 281 | 0.0 | 1.0 | 0.00 | 0.23 | 0.00 | 54 | 1011.3 |
| 20260508234217 | 61 | 257 | 0.0 | 0.0 | 0.00 | 0.00 | 0.00 | 54 | 1027.7 |
| 20260508233712 | 61 | 276 | 0.0 | 0.0 | 0.00 | 0.00 | 0.00 | 54 | 1027.8 |
| 20260508233704 | 61 | 237 | 0.0 | 0.0 | 0.00 | 0.23 | 0.00 | 53 | 1011.1 |
| 20260508233209 | 62 | 271 | 0.0 | 0.0 | 0.00 | 0.00 | 0.00 | 53 | 1027.7 |
| 20260508233203 | 62 | 271 | 0.0 | 1.0 | 0.00 | 0.23 | 0.00 | 53 | 1010.9 |
| 20260508232706 | 62 | 271 | 0.0 | 2.0 | 0.00 | 0.00 | 0.00 | 50 | 1027.7 |
| 20260508232703 | 62 | 271 | 0.0 | 1.0 | 0.00 | 0.23 | 0.00 | 49 | 1011.1 |
| 20260508232157 | 62 | 282 | 0.0 | 2.0 | 0.00 | 0.00 | 0.00 | 51 | 1027.6 |
| 20260508231703 | 62 | 254 | 0.0 | 3.0 | 0.00 | 0.23 | 0.00 | 50 | 1010.9 |
| 20260508231655 | 62 | 278 | 0.0 | 2.0 | 0.00 | 0.00 | 0.00 | 52 | 1027.7 |
| 20260508231152 | 62 | 284 | 0.0 | 2.0 | 0.00 | 0.00 | 0.00 | 51 | 1027.7 |
| 20260508230704 | 62 | 305 | 0.0 | 3.0 | 0.00 | 0.23 | 0.00 | 53 | 1010.8 |
| 20260508230648 | 62 | 306 | 0.0 | 0.0 | 0.00 | 0.00 | 0.00 | 55 | 1027.5 |
| 20260508230204 | 62 | 280 | 0.0 | 3.0 | 0.00 | 0.23 | 0.00 | 53 | 1010.8 |
| 20260508230144 | 62 | 278 | 0.0 | 3.0 | 0.00 | 0.00 | 0.00 | 51 | 1027.5 |
| 20260508225704 | 63 | 290 | 0.0 | 1.0 | 0.00 | 0.23 | 0.00 | 50 | 1010.7 |
| 20260508225642 | 63 | 290 | 0.0 | 2.0 | 0.00 | 0.00 | 0.00 | 53 | 1027.6 |
| 20260508225203 | 63 | 278 | 0.0 | 0.0 | 0.00 | 0.23 | 0.00 | 50 | 1010.8 |
| 20260508225138 | 63 | 294 | 0.0 | 0.0 | 0.00 | 0.00 | 0.00 | 53 | 1027.5 |
| 20260508224704 | 63 | 287 | 0.0 | 0.0 | 0.00 | 0.23 | 0.00 | 52 | 1010.8 |
| 20260508224636 | 63 | 287 | 0.0 | 0.0 | 0.00 | 0.00 | 0.00 | 51 | 1027.4 |
| 20260508224204 | 64 | 293 | 0.0 | 0.0 | 0.00 | 0.23 | 0.00 | 52 | 1010.6 |
| 20260508224134 | 64 | 286 | 0.0 | 0.0 | 0.00 | 0.00 | 0.00 | 53 | 1027.3 |
| 20260508223704 | 64 | 292 | 0.0 | 1.0 | 0.00 | 0.23 | 0.00 | 50 | 1010.7 |
| 20260508223632 | 64 | 292 | 0.0 | 0.0 | 0.00 | 0.00 | 0.00 | 50 | 1027.4 |
| 20260508223204 | 64 | 189 | 0.0 | 1.0 | 0.00 | 0.23 | 0.00 | 50 | 1010.8 |
| 20260508223129 | 64 | 279 | 0.0 | 2.0 | 0.00 | 0.00 | 0.00 | 49 | 1027.5 |
| 20260508222626 | 64 | 261 | 0.0 | 2.0 | 0.00 | 0.00 | 0.00 | 48 | 1027.4 |
| 20260508222203 | 64 | 277 | 0.0 | 0.0 | 0.00 | 0.23 | 0.00 | 50 | 1010.8 |
| 20260508222123 | 64 | 277 | 0.0 | 0.0 | 0.00 | 0.00 | 0.00 | 50 | 1027.5 |
| 20260508221704 | 64 | 270 | 0.0 | 5.0 | 0.00 | 0.23 | 0.00 | 50 | 1010.6 |
| 20260508221619 | 64 | 270 | 0.0 | 0.0 | 0.00 | 0.00 | 0.00 | 50 | 1027.3 |
| 20260508221204 | 64 | 297 | 1.0 | 5.0 | 0.00 | 0.23 | 0.00 | 50 | 1010.8 |
| 20260508221115 | 64 | 298 | 1.0 | 5.0 | 0.00 | 0.00 | 0.00 | 50 | 1027.4 |
| 20260508220612 | 64 | 285 | 0.0 | 3.0 | 0.00 | 0.00 | 0.00 | 49 | 1027.3 |
| 20260508220205 | 63 | 316 | 1.0 | 7.0 | 0.00 | 0.23 | 0.00 | 49 | 1010.8 |
| 20260508220108 | 63 | 319 | 0.0 | 7.0 | 0.00 | 0.00 | 0.00 | 49 | 1027.5 |
| 20260508215604 | 64 | 327 | 0.0 | 0.0 | 0.00 | 0.00 | 0.00 | 51 | 1027.2 |
| 20260508215204 | 64 | 317 | 0.0 | 1.0 | 0.00 | 0.23 | 0.00 | 49 | 1010.7 |
| 20260508215101 | 64 | 317 | 0.0 | 2.0 | 0.00 | 0.00 | 0.00 | 49 | 1027.3 |
| 20260508214704 | 64 | 293 | 1.0 | 5.0 | 0.00 | 0.23 | 0.00 | 50 | 1010.6 |
| 20260508214559 | 64 | 294 | 0.0 | 5.0 | 0.00 | 0.00 | 0.00 | 49 | 1027.3 |
| 20260508214204 | 63 | 284 | 0.0 | 0.0 | 0.00 | 0.23 | 0.00 | 50 | 1010.6 |
| 20260508214055 | 63 | 284 | 0.0 | 0.0 | 0.00 | 0.00 | 0.00 | 50 | 1027.3 |
| 20260508213552 | 63 | 291 | 0.0 | 3.0 | 0.00 | 0.00 | 0.00 | 49 | 1027.5 |
| 20260508213204 | 64 | 281 | 1.0 | 5.0 | 0.00 | 0.23 | 0.00 | 48 | 1010.6 |
| 20260508213048 | 64 | 279 | 0.0 | 5.0 | 0.00 | 0.00 | 0.00 | 48 | 1027.3 |
| 20260508212705 | 64 | 270 | 0.0 | 3.0 | 0.00 | 0.23 | 0.00 | 47 | 1010.8 |
| 20260508212545 | 64 | 268 | 0.0 | 2.0 | 0.00 | 0.00 | 0.00 | 47 | 1027.5 |
| 20260508212204 | 64 | 82 | 0.0 | 1.0 | 0.00 | 0.23 | 0.00 | 50 | 1010.8 |
| 20260508212041 | 64 | 82 | 0.0 | 0.0 | 0.00 | 0.00 | 0.00 | 50 | 1027.5 |
| 20260508211704 | 64 | 301 | 1.0 | 3.0 | 0.00 | 0.23 | 0.00 | 49 | 1010.8 |
| 20260508211537 | 64 | 305 | 0.0 | 3.0 | 0.00 | 0.00 | 0.00 | 49 | 1027.6 |
| 20260508211203 | 65 | 272 | 0.0 | 3.0 | 0.00 | 0.23 | 0.00 | 49 | 1010.6 |
| 20260508211033 | 65 | 320 | 0.0 | 0.0 | 0.00 | 0.00 | 0.00 | 47 | 1027.5 |
| 20260508210704 | 65 | 310 | 0.0 | 1.0 | 0.00 | 0.23 | 0.00 | 49 | 1010.6 |
| 20260508210529 | 65 | 263 | 0.0 | 2.0 | 0.00 | 0.00 | 0.00 | 47 | 1027.4 |
| 20260508210204 | 65 | 255 | 0.0 | 3.0 | 0.00 | 0.23 | 0.00 | 48 | 1010.9 |
| 20260508210027 | 65 | 243 | 0.0 | 3.0 | 0.00 | 0.00 | 0.00 | 46 | 1027.4 |
| 20260508205703 | 65 | 297 | 0.0 | 5.0 | 0.00 | 0.23 | 0.00 | 46 | 1010.7 |
| 20260508205524 | 65 | 300 | 0.0 | 5.0 | 0.00 | 0.00 | 0.00 | 46 | 1027.4 |
| 20260508205205 | 65 | 304 | 0.0 | 5.0 | 0.00 | 0.23 | 0.00 | 44 | 1010.6 |
| 20260508205020 | 66 | 221 | 0.0 | 2.0 | 0.00 | 0.00 | 0.00 | 45 | 1027.3 |
| 20260508204704 | 65 | 297 | 1.0 | 8.0 | 0.00 | 0.23 | 0.00 | 45 | 1010.7 |
| 20260508204517 | 65 | 221 | 1.0 | 3.0 | 0.00 | 0.00 | 0.00 | 45 | 1027.5 |
| 20260508204204 | 65 | 213 | 3.0 | 9.0 | 0.00 | 0.23 | 0.00 | 47 | 1010.8 |
| 20260508204013 | 65 | 240 | 2.0 | 5.0 | 0.00 | 0.00 | 0.00 | 46 | 1027.5 |
| 20260508203704 | 65 | 264 | 3.0 | 12.0 | 0.00 | 0.23 | 0.00 | 47 | 1010.9 |
| 20260508203509 | 65 | 280 | 5.0 | 10.0 | 0.00 | 0.00 | 0.00 | 45 | 1027.6 |
| 20260508203205 | 65 | 267 | 0.0 | 7.0 | 0.00 | 0.23 | 0.00 | 48 | 1010.8 |
| 20260508203005 | 65 | 316 | 0.0 | 2.0 | 0.00 | 0.00 | 0.00 | 47 | 1027.6 |
| 20260508202503 | 65 | 267 | 0.0 | 3.0 | 0.00 | 0.00 | 0.00 | 47 | 1027.7 |
| 20260508202205 | 66 | 310 | 1.0 | 3.0 | 0.00 | 0.23 | 0.00 | 46 | 1011.1 |
| 20260508201959 | 66 | 249 | 1.0 | 3.0 | 0.00 | 0.00 | 0.00 | 44 | 1027.7 |
| 20260508201704 | 65 | 283 | 0.0 | 5.0 | 0.00 | 0.23 | 0.00 | 47 | 1011.1 |
| 20260508201456 | 65 | 272 | 0.0 | 2.0 | 0.00 | 0.00 | 0.00 | 43 | 1027.8 |
| 20260508201204 | 64 | 292 | 1.0 | 8.0 | 0.00 | 0.23 | 0.00 | 47 | 1011.1 |
| 20260508200948 | 64 | 274 | 0.0 | 5.0 | 0.00 | 0.00 | 0.00 | 47 | 1028.1 |
| 20260508200703 | 64 | 281 | 1.0 | 13.0 | 0.00 | 0.23 | 0.00 | 49 | 1011.2 |
| 20260508200444 | 64 | 257 | 1.0 | 13.0 | 0.00 | 0.00 | 0.00 | 44 | 1027.8 |
| 20260508200204 | 64 | 272 | 2.0 | 12.0 | 0.00 | 0.23 | 0.00 | 47 | 1011.4 |
| 20260508195939 | 64 | 295 | 2.0 | 11.0 | 0.00 | 0.00 | 0.00 | 45 | 1027.9 |
| 20260508195437 | 64 | 271 | 0.0 | 2.0 | 0.00 | 0.00 | 0.00 | 48 | 1027.9 |
| 20260508195203 | 64 | 247 | 2.0 | 8.0 | 0.00 | 0.23 | 0.00 | 46 | 1011.2 |
| 20260508194933 | 64 | 247 | 4.0 | 7.0 | 0.00 | 0.00 | 0.00 | 45 | 1027.9 |
| 20260508194430 | 64 | 345 | 0.0 | 2.0 | 0.00 | 0.00 | 0.00 | 45 | 1028.1 |
| 20260508194203 | 64 | 313 | 1.0 | 5.0 | 0.00 | 0.23 | 0.00 | 47 | 1011.5 |
| 20260508193927 | 64 | 266 | 1.0 | 5.0 | 0.00 | 0.00 | 0.00 | 46 | 1027.8 |
| 20260508193703 | 64 | 257 | 0.0 | 8.0 | 0.00 | 0.23 | 0.00 | 46 | 1011.3 |
| 20260508193424 | 64 | 272 | 0.0 | 3.0 | 0.00 | 0.00 | 0.00 | 45 | 1027.8 |
| 20260508193203 | 64 | 224 | 1.0 | 8.0 | 0.00 | 0.23 | 0.00 | 45 | 1011.3 |
| 20260508192920 | 64 | 248 | 5.0 | 7.0 | 0.00 | 0.00 | 0.00 | 46 | 1028.0 |
| 20260508192703 | 63 | 323 | 2.0 | 16.0 | 0.00 | 0.23 | 0.00 | 48 | 1011.3 |
| 20260508192417 | 63 | 279 | 0.0 | 16.0 | 0.00 | 0.00 | 0.00 | 46 | 1028.2 |
| 20260508192204 | 64 | 245 | 3.0 | 8.0 | 0.00 | 0.23 | 0.00 | 46 | 1011.5 |
| 20260508191914 | 64 | 326 | 1.0 | 5.0 | 0.00 | 0.00 | 0.00 | 48 | 1028.4 |
| 20260508191703 | 64 | 238 | 1.0 | 13.0 | 0.00 | 0.23 | 0.00 | 48 | 1011.5 |
| 20260508191412 | 65 | 325 | 4.0 | 10.0 | 0.00 | 0.00 | 0.00 | 47 | 1028.4 |
| 20260508191203 | 64 | 270 | 0.0 | 3.0 | 0.00 | 0.23 | 0.00 | 47 | 1011.4 |
| 20260508190908 | 64 | 254 | 0.0 | 3.0 | 0.00 | 0.00 | 0.00 | 47 | 1028.1 |
| 20260508190703 | 64 | 247 | 0.0 | 8.0 | 0.00 | 0.23 | 0.00 | 46 | 1011.5 |
| 20260508190405 | 64 | 275 | 0.0 | 8.0 | 0.00 | 0.00 | 0.00 | 47 | 1028.2 |
| 20260508190203 | 64 | 284 | 0.0 | 7.0 | 0.00 | 0.23 | 0.00 | 47 | 1011.6 |